TimeEST,TemperatureF,Dew PointF,Humidity,Sea Level PressureIn,VisibilityMPH,Wind Direction,Wind SpeedMPH,Gust SpeedMPH,PrecipitationIn,Events,Conditions,WindDirDegrees,DateUTC
12:51 AM,39.0,37.0,93,30.40,7.0,NNE,3.5,-,N/A,,Clear,30,2012-12-02 05:51:00
1:51 AM,41.0,39.0,93,30.39,6.0,North,3.5,-,N/A,,Clear,10,2012-12-02 06:51:00
2:51 AM,39.9,37.9,93,30.38,5.0,NNE,3.5,-,N/A,,Clear,20,2012-12-02 07:51:00
3:51 AM,46.9,45.0,93,30.38,9.0,North,5.8,-,N/A,,Clear,360,2012-12-02 08:51:00
4:51 AM,48.0,46.0,93,30.39,7.0,NNW,4.6,-,N/A,,Clear,340,2012-12-02 09:51:00
5:51 AM,48.0,46.0,93,30.39,6.0,North,4.6,-,N/A,,Clear,360,2012-12-02 10:51:00
6:48 AM,42.8,41.0,93,30.40,1.5,Calm,Calm,-,N/A,,Clear,0,2012-12-02 11:48:00
6:51 AM,42.1,41.0,96,30.40,0.8,Calm,Calm,-,N/A,,Clear,0,2012-12-02 11:51:00
7:14 AM,44.6,42.8,93,30.41,2.0,NNE,3.5,-,N/A,,Clear,20,2012-12-02 12:14:00
7:21 AM,41.0,41.0,100,30.41,3.0,Calm,Calm,-,N/A,,Clear,0,2012-12-02 12:21:00
7:23 AM,41.0,41.0,100,30.41,1.5,North,3.5,-,N/A,,Clear,360,2012-12-02 12:23:00
7:33 AM,48.2,46.4,93,30.41,3.0,NNE,4.6,-,N/A,,Clear,20,2012-12-02 12:33:00
7:51 AM,48.9,48.0,97,30.42,5.0,NNE,4.6,-,N/A,,Clear,20,2012-12-02 12:51:00
8:51 AM,54.0,50.0,86,30.42,10.0,Calm,Calm,-,N/A,,Clear,0,2012-12-02 13:51:00
9:51 AM,59.0,50.0,72,30.42,10.0,Calm,Calm,-,N/A,,Clear,0,2012-12-02 14:51:00
10:51 AM,60.1,48.9,67,30.41,10.0,South,3.5,-,N/A,,Clear,180,2012-12-02 15:51:00
11:51 AM,57.0,48.9,74,30.38,10.0,South,3.5,-,N/A,,Clear,180,2012-12-02 16:51:00
12:51 PM,62.1,46.0,56,30.35,10.0,SE,3.5,-,N/A,,Clear,140,2012-12-02 17:51:00
1:51 PM,61.0,46.9,60,30.32,10.0,SSE,4.6,-,N/A,,Clear,150,2012-12-02 18:51:00
2:51 PM,57.9,48.9,72,30.32,10.0,SE,3.5,-,N/A,,Clear,130,2012-12-02 19:51:00
3:51 PM,57.0,48.9,74,30.32,10.0,Calm,Calm,-,N/A,,Clear,0,2012-12-02 20:51:00
4:51 PM,55.0,50.0,83,30.32,8.0,Calm,Calm,-,N/A,,Clear,0,2012-12-02 21:51:00
5:51 PM,52.0,48.9,89,30.33,10.0,Calm,Calm,-,N/A,,Mostly Cloudy,0,2012-12-02 22:51:00
6:51 PM,53.1,48.9,86,30.32,9.0,Calm,Calm,-,N/A,,Mostly Cloudy,0,2012-12-02 23:51:00
7:51 PM,54.0,48.9,83,30.31,9.0,South,3.5,-,N/A,,Clear,170,2012-12-03 00:51:00
8:51 PM,51.1,48.0,89,30.31,7.0,Calm,Calm,-,N/A,,Clear,0,2012-12-03 01:51:00
9:51 PM,50.0,46.9,89,30.30,7.0,SE,3.5,-,N/A,,Partly Cloudy,140,2012-12-03 02:51:00
10:51 PM,52.0,48.0,86,30.29,9.0,South,4.6,-,N/A,,Partly Cloudy,180,2012-12-03 03:51:00
11:51 PM,55.0,51.1,86,30.29,7.0,SW,3.5,-,N/A,,Clear,230,2012-12-03 04:51:00